Find Kosmos-2603

NORAD ID: 67677 Int'l Des: 2026-023 Owner: VVKOV Country: RU operational
LEOCIRCULARRETROGRADE

Current View

Loading 3D Globe...

About Kosmos-2603

Description loading...

Upcoming Passes

Passes for default location (London). Set your location on the main map for personalized predictions.

Altitude History

Loading altitude history...

Two-Line Element Set

1 67677U 26023D 26146.60923831 .00010161 00000-0 41558-3 0 9992
2 67677 96.6331 210.6304 0018144 206.9741 153.0558 15.24348674 16712
Epoch: May 26, 2026 • Age: 5 hours

Current Status

Altitude 491.2 km
Velocity 7.63 km/s
Sub-Earth Point 34.23°N, 148.85°W
Launch Date Feb 5, 2026
Age 0.3 years
Type other

Technical Details

Classification Payload
Mass 500.00 kg
Dry Mass 500.00 kg
Total Mass 500.00 kg
Length 3.00 m
Diameter 1.30 m
Span 3.00 m
Shape Cyl + 2 Pan
Manufacturer UNKRU
Bus Type Unk
Phase Status In Orbit
Owner/State VVKOV/RU

Most Searched